| time (UTC) | temp C | wind direction | speed KPH | gust KPH | rain 1hr cm | rain 24hr cm | rain mn cm | humidity % | barometer mb |
| 20260510071642 | 9 | 69 | 0.0 | 4.8 | 0.00 | 0.03 | 0.03 | 92 | 1007.4 |
| 20260510071136 | 9 | 80 | 1.6 | 4.8 | 0.00 | 0.03 | 0.03 | 93 | 1007.2 |
| 20260510070559 | 9 | 81 | 1.6 | 4.8 | 0.00 | 0.03 | 0.03 | 93 | 1007.2 |
| 20260510070055 | 10 | 351 | 1.6 | 4.8 | 0.00 | 0.03 | 0.03 | 94 | 1007.3 |
| 20260510065548 | 10 | 350 | 0.0 | 4.8 | 0.00 | 0.03 | 0.03 | 94 | 1007.6 |
| 20260510065310 | 10 | 355 | 0.0 | 4.8 | 0.00 | 0.03 | 0.03 | 94 | 1007.4 |
| 20260510064533 | 10 | 276 | 0.0 | 1.6 | 0.00 | 0.03 | 0.03 | 94 | 1007.4 |
| 20260510064003 | 10 | 276 | 0.0 | 1.6 | 0.00 | 0.03 | 0.03 | 94 | 1007.3 |
| 20260510062944 | 10 | 276 | 0.0 | 3.2 | 0.00 | 0.03 | 0.03 | 94 | 1006.9 |
| 20260510062440 | 10 | 276 | 0.0 | 0.0 | 0.00 | 0.03 | 0.03 | 94 | 1006.8 |
| 20260510062156 | 10 | 276 | 0.0 | 0.0 | 0.00 | 0.03 | 0.03 | 94 | 1006.7 |
| 20260510060911 | 11 | 276 | 0.0 | 3.2 | 0.03 | 0.03 | 0.03 | 94 | 1006.4 |
| 20260510060352 | 11 | 276 | 0.0 | 3.2 | 0.03 | 0.03 | 0.03 | 94 | 1006.8 |
| 20260510055852 | 11 | 256 | 0.0 | 3.2 | 0.03 | 0.03 | 0.03 | 94 | 1007.1 |
| 20260510055336 | 11 | 252 | 0.0 | 3.2 | 0.03 | 0.03 | 0.03 | 94 | 1007.0 |
| 20260510055051 | 11 | 253 | 0.0 | 3.2 | 0.03 | 0.03 | 0.03 | 93 | 1006.8 |
| 20260510054332 | 11 | 252 | 0.0 | 0.0 | 0.03 | 0.03 | 0.03 | 93 | 1006.4 |
| 20260510053830 | 11 | 252 | 0.0 | 0.0 | 0.03 | 0.03 | 0.03 | 93 | 1006.2 |
| 20260510053328 | 11 | 252 | 0.0 | 0.0 | 0.03 | 0.03 | 0.03 | 93 | 1006.0 |
| 20260510053046 | 11 | 252 | 0.0 | 1.6 | 0.03 | 0.03 | 0.03 | 93 | 1006.0 |
| 20260510052313 | 11 | 252 | 0.0 | 1.6 | 0.03 | 0.03 | 0.03 | 94 | 1005.9 |
| 20260510052034 | 11 | 250 | 0.0 | 0.0 | 0.03 | 0.03 | 0.03 | 94 | 1005.9 |
| 20260510051536 | 12 | 250 | 1.6 | 6.4 | 0.03 | 0.03 | 0.03 | 94 | 1005.9 |
| 20260510051014 | 11 | 250 | 1.6 | 6.4 | 0.00 | 0.00 | 0.00 | 94 | 1006.5 |
| 20260510050250 | 11 | 207 | 1.6 | 4.8 | 0.00 | 0.00 | 0.00 | 94 | 1006.5 |
| 20260510045750 | 11 | 212 | 1.6 | 8.0 | 0.00 | 0.00 | 0.00 | 95 | 1006.4 |
| 20260510045235 | 11 | 205 | 1.6 | 8.0 | 0.00 | 0.00 | 0.00 | 95 | 1006.2 |
| 20260510044735 | 11 | 238 | 0.0 | 8.0 | 0.00 | 0.00 | 0.00 | 95 | 1005.9 |
| 20260510044236 | 11 | 246 | 0.0 | 8.0 | 0.00 | 0.00 | 0.00 | 95 | 1005.7 |
| 20260510043737 | 11 | 133 | 0.0 | 1.6 | 0.00 | 0.00 | 0.00 | 95 | 1005.6 |
| 20260510043233 | 11 | 133 | 0.0 | 0.0 | 0.00 | 0.00 | 0.00 | 95 | 1005.3 |
| 20260510042719 | 11 | 133 | 0.0 | 0.0 | 0.00 | 0.00 | 0.00 | 95 | 1005.1 |
| 20260510042210 | 11 | 133 | 0.0 | 0.0 | 0.00 | 0.00 | 0.00 | 94 | 1004.9 |
| 20260510041650 | 11 | 133 | 0.0 | 0.0 | 0.00 | 0.00 | 0.00 | 94 | 1004.6 |
| 20260510040346 | 11 | 133 | 0.0 | 0.0 | 0.00 | 1.57 | 0.00 | 94 | 1004.5 |
| 20260510035844 | 11 | 133 | 0.0 | 0.0 | 0.00 | 1.57 | 1.57 | 94 | 1004.5 |
| 20260510035600 | 11 | 133 | 0.0 | 3.2 | 0.00 | 1.57 | 1.57 | 94 | 1004.3 |
| 20260510034829 | 11 | 133 | 0.0 | 3.2 | 0.00 | 1.57 | 1.57 | 94 | 1004.4 |
| 20260510034558 | 11 | 193 | 0.0 | 0.0 | 0.00 | 1.57 | 1.57 | 94 | 1004.5 |
| 20260510033824 | 11 | 193 | 0.0 | 3.2 | 0.00 | 1.57 | 1.57 | 94 | 1004.6 |
| 20260510033305 | 11 | 193 | 0.0 | 4.8 | 0.00 | 1.57 | 1.57 | 94 | 1004.5 |
| 20260510032803 | 11 | 189 | 1.6 | 6.4 | 0.00 | 1.57 | 1.57 | 94 | 1004.4 |
| 20260510032306 | 11 | 188 | 0.0 | 6.4 | 0.00 | 1.57 | 1.57 | 94 | 1004.3 |
| 20260510031800 | 11 | 173 | 0.0 | 4.8 | 0.00 | 1.57 | 1.57 | 94 | 1004.4 |
| 20260510031256 | 11 | 173 | 0.0 | 4.8 | 0.00 | 1.57 | 1.57 | 95 | 1004.5 |
| 20260510030742 | 11 | 252 | 0.0 | 4.8 | 0.00 | 1.57 | 1.57 | 95 | 1004.5 |
| 20260510030238 | 11 | 183 | 0.0 | 3.2 | 0.00 | 1.57 | 1.57 | 95 | 1004.6 |
| 20260510025738 | 11 | 196 | 0.0 | 3.2 | 0.00 | 1.57 | 1.57 | 94 | 1004.6 |
| 20260510025436 | 11 | 196 | 0.0 | 3.2 | 0.00 | 1.57 | 1.57 | 94 | 1004.5 |
| 20260510024719 | 11 | 189 | 0.0 | 3.2 | 0.00 | 1.57 | 1.57 | 94 | 1004.6 |
| 20260510024204 | 11 | 200 | 0.0 | 4.8 | 0.00 | 1.57 | 1.57 | 94 | 1004.6 |
| 20260510023656 | 11 | 188 | 0.0 | 3.2 | 0.00 | 1.57 | 1.57 | 94 | 1004.6 |
| 20260510022636 | 11 | 163 | 1.6 | 6.4 | 0.00 | 1.57 | 1.57 | 94 | 1004.7 |
| 20260510022137 | 11 | 232 | 1.6 | 8.0 | 0.00 | 1.57 | 1.57 | 94 | 1004.7 |
| 20260510021626 | 11 | 174 | 0.0 | 8.0 | 0.00 | 1.57 | 1.57 | 94 | 1004.5 |
| 20260510021337 | 11 | 209 | 0.0 | 3.2 | 0.00 | 1.57 | 1.57 | 94 | 1004.5 |
| 20260510020609 | 11 | 220 | 0.0 | 3.2 | 0.00 | 1.57 | 1.57 | 94 | 1004.4 |
| 20260510020058 | 11 | 221 | 0.0 | 4.8 | 0.00 | 1.57 | 1.57 | 94 | 1004.7 |
| 20260510015553 | 11 | 217 | 0.0 | 4.8 | 0.00 | 1.57 | 1.57 | 94 | 1004.7 |
| 20260510015306 | 11 | 225 | 0.0 | 6.4 | 0.00 | 1.57 | 1.57 | 94 | 1004.6 |
| 20260510014546 | 11 | 225 | 0.0 | 9.7 | 0.00 | 1.57 | 1.57 | 94 | 1004.5 |
| 20260510014039 | 11 | 226 | 1.6 | 9.7 | 0.00 | 1.57 | 1.57 | 94 | 1004.5 |
| 20260510013538 | 11 | 227 | 1.6 | 9.7 | 0.00 | 1.57 | 1.57 | 95 | 1004.3 |
| 20260510012759 | 11 | 225 | 0.0 | 6.4 | 0.00 | 1.57 | 1.57 | 94 | 1004.3 |
| 20260510012032 | 11 | 222 | 0.0 | 6.4 | 0.00 | 1.57 | 1.57 | 94 | 1004.3 |
| 20260510011521 | 11 | 185 | 0.0 | 3.2 | 0.00 | 1.57 | 1.57 | 94 | 1004.3 |
| 20260510011016 | 11 | 184 | 0.0 | 3.2 | 0.00 | 1.57 | 1.57 | 94 | 1004.2 |
| 20260510010513 | 11 | 188 | 0.0 | 6.4 | 0.00 | 1.57 | 1.57 | 94 | 1004.1 |
| 20260510005947 | 11 | 186 | 0.0 | 6.4 | 0.00 | 1.57 | 1.57 | 94 | 1004.1 |
| 20260510005702 | 11 | 172 | 0.0 | 8.0 | 0.00 | 1.57 | 1.57 | 94 | 1004.0 |
| 20260510004934 | 11 | 169 | 0.0 | 8.0 | 0.00 | 1.57 | 1.57 | 94 | 1003.9 |
| 20260510004700 | 11 | 195 | 0.0 | 3.2 | 0.03 | 1.57 | 1.57 | 94 | 1003.8 |
| 20260510003917 | 11 | 246 | 0.0 | 4.8 | 0.08 | 1.57 | 1.57 | 94 | 1003.9 |
| 20260510003417 | 11 | 211 | 1.6 | 8.0 | 0.13 | 1.57 | 1.57 | 94 | 1003.9 |
| 20260510002910 | 11 | 166 | 0.0 | 8.0 | 0.23 | 1.57 | 1.57 | 94 | 1003.9 |
| 20260510002408 | 11 | 214 | 0.0 | 4.8 | 0.30 | 1.57 | 1.57 | 94 | 1003.9 |
| 20260510001857 | 11 | 180 | 0.0 | 4.8 | 0.38 | 1.57 | 1.57 | 94 | 1003.8 |
| 20260510001345 | 11 | 188 | 0.0 | 14.5 | 0.48 | 1.57 | 1.57 | 94 | 1003.7 |
| 20260510000836 | 11 | 244 | 0.0 | 14.5 | 0.61 | 1.57 | 1.57 | 94 | 1003.6 |
| 20260510000335 | 11 | 223 | 1.6 | 6.4 | 0.69 | 1.57 | 1.57 | 94 | 1003.5 |
| 20260509235832 | 11 | 207 | 1.6 | 6.4 | 0.79 | 1.57 | 1.57 | 94 | 1003.5 |
| 20260509235322 | 11 | 194 | 1.6 | 11.3 | 0.97 | 1.57 | 1.57 | 94 | 1003.6 |
| 20260509234818 | 11 | 225 | 1.6 | 11.3 | 1.45 | 1.55 | 1.57 | 94 | 1003.8 |
| 20260509234312 | 11 | 186 | 1.6 | 8.0 | 1.52 | 1.55 | 1.55 | 93 | 1003.6 |
| 20260509233808 | 11 | 246 | 1.6 | 8.0 | 1.47 | 1.50 | 1.50 | 93 | 1003.9 |
| 20260509233305 | 11 | 232 | 1.6 | 9.7 | 1.40 | 1.42 | 1.45 | 93 | 1004.4 |
| 20260509232804 | 11 | 180 | 1.6 | 9.7 | 1.30 | 1.32 | 1.35 | 93 | 1004.4 |
| 20260509232255 | 11 | 309 | 3.2 | 17.7 | 1.22 | 1.24 | 1.27 | 92 | 1004.5 |
| 20260509231752 | 11 | 260 | 3.2 | 17.7 | 1.14 | 1.17 | 1.17 | 92 | 1004.5 |
| 20260509231456 | 11 | 296 | 3.2 | 11.3 | 1.04 | 1.07 | 1.07 | 91 | 1004.5 |
| 20260509230732 | 11 | 311 | 3.2 | 11.3 | 0.91 | 0.94 | 0.97 | 91 | 1004.5 |
| 20260509230231 | 11 | 305 | 4.8 | 24.1 | 0.84 | 0.86 | 0.89 | 90 | 1004.4 |
| 20260509225733 | 11 | 300 | 4.8 | 24.1 | 0.74 | 0.76 | 0.76 | 87 | 1004.4 |
| 20260509225447 | 12 | 293 | 8.0 | 20.9 | 0.48 | 0.51 | 0.58 | 83 | 1004.3 |
| 20260509224723 | 13 | 314 | 6.4 | 20.9 | 0.05 | 0.08 | 0.08 | 76 | 1004.8 |
| 20260509224222 | 16 | 0 | 3.2 | 20.9 | 0.00 | 0.03 | 0.03 | 69 | 1003.9 |
| 20260509223721 | 18 | 55 | 0.0 | 6.4 | 0.00 | 0.03 | 0.03 | 67 | 1002.7 |
| 20260509223223 | 18 | 192 | 0.0 | 4.8 | 0.00 | 0.03 | 0.03 | 63 | 1002.2 |
| 20260509222702 | 18 | 211 | 1.6 | 9.7 | 0.00 | 0.03 | 0.03 | 60 | 1002.4 |
| 20260509222157 | 18 | 205 | 1.6 | 9.7 | 0.00 | 0.03 | 0.03 | 59 | 1001.8 |
| 20260509221657 | 18 | 211 | 1.6 | 8.0 | 0.00 | 0.03 | 0.03 | 60 | 1001.7 |
| 20260509221154 | 18 | 182 | 1.6 | 8.0 | 0.00 | 0.03 | 0.03 | 59 | 1001.6 |
| 20260509220403 | 18 | 194 | 3.2 | 16.1 | 0.00 | 0.03 | 0.03 | 58 | 1001.5 |
| 20260509215628 | 18 | 218 | 3.2 | 16.1 | 0.00 | 0.03 | 0.03 | 58 | 1001.5 |
| 20260509215123 | 18 | 150 | 3.2 | 20.9 | 0.00 | 0.03 | 0.03 | 58 | 1001.5 |
| 20260509214624 | 18 | 254 | 4.8 | 20.9 | 0.00 | 0.03 | 0.03 | 57 | 1001.4 |
| 20260509214121 | 19 | 124 | 4.8 | 19.3 | 0.00 | 0.03 | 0.03 | 58 | 1001.4 |
| 20260509213618 | 19 | 238 | 6.4 | 19.3 | 0.00 | 0.03 | 0.03 | 55 | 1001.3 |
| 20260509213335 | 20 | 128 | 6.4 | 22.5 | 0.00 | 0.03 | 0.03 | 56 | 1001.4 |
| 20260509212618 | 20 | 198 | 4.8 | 22.5 | 0.00 | 0.03 | 0.03 | 55 | 1001.3 |
| 20260509212115 | 20 | 192 | 6.4 | 27.4 | 0.00 | 0.03 | 0.03 | 54 | 1001.3 |
| 20260509211614 | 20 | 69 | 9.7 | 27.4 | 0.00 | 0.03 | 0.03 | 56 | 1001.3 |
| 20260509211114 | 20 | 223 | 8.0 | 25.7 | 0.00 | 0.03 | 0.03 | 56 | 1001.4 |
| 20260509210610 | 20 | 195 | 6.4 | 25.7 | 0.00 | 0.03 | 0.03 | 56 | 1001.4 |
| 20260509210104 | 20 | 192 | 6.4 | 22.5 | 0.00 | 0.03 | 0.03 | 57 | 1001.5 |
| 20260509205602 | 20 | 205 | 6.4 | 22.5 | 0.00 | 0.03 | 0.03 | 57 | 1001.4 |
| 20260509205055 | 20 | 177 | 3.2 | 22.5 | 0.00 | 0.03 | 0.03 | 57 | 1001.5 |
| 20260509204551 | 20 | 279 | 4.8 | 20.9 | 0.00 | 0.03 | 0.03 | 61 | 1001.4 |
| 20260509204045 | 20 | 61 | 8.0 | 20.9 | 0.00 | 0.03 | 0.03 | 59 | 1001.7 |
| 20260509203544 | 20 | 219 | 6.4 | 22.5 | 0.00 | 0.03 | 0.03 | 59 | 1002.0 |
| 20260509203044 | 20 | 182 | 6.4 | 22.5 | 0.00 | 0.03 | 0.03 | 57 | 1002.0 |
| 20260509202039 | 20 | 245 | 6.4 | 22.5 | 0.00 | 0.03 | 0.03 | 58 | 1002.1 |
| 20260509201538 | 20 | 314 | 4.8 | 19.3 | 0.00 | 0.03 | 0.03 | 60 | 1002.3 |
| 20260509201035 | 18 | 182 | 6.4 | 24.1 | 0.00 | 0.03 | 0.03 | 62 | 1002.3 |
| 20260509200752 | 18 | 115 | 6.4 | 27.4 | 0.00 | 0.03 | 0.03 | 61 | 1002.4 |
| 20260509200026 | 18 | 224 | 4.8 | 27.4 | 0.00 | 0.03 | 0.03 | 60 | 1002.5 |
| 20260509195525 | 18 | 133 | 4.8 | 16.1 | 0.00 | 0.03 | 0.03 | 59 | 1002.7 |
| 20260509194519 | 20 | 92 | 4.8 | 19.3 | 0.00 | 0.03 | 0.03 | 59 | 1002.6 |
| 20260509194016 | 20 | 170 | 4.8 | 19.3 | 0.00 | 0.03 | 0.03 | 58 | 1002.6 |
| 20260509193509 | 20 | 235 | 6.4 | 19.3 | 0.00 | 0.03 | 0.03 | 59 | 1002.6 |
| 20260509193007 | 20 | 97 | 6.4 | 19.3 | 0.00 | 0.03 | 0.03 | 56 | 1002.7 |
| 20260509192502 | 20 | 243 | 4.8 | 19.3 | 0.00 | 0.03 | 0.03 | 56 | 1002.7 |
| 20260509192003 | 21 | 288 | 4.8 | 16.1 | 0.00 | 0.03 | 0.03 | 56 | 1002.7 |
| 20260509191501 | 21 | 144 | 4.8 | 16.1 | 0.00 | 0.03 | 0.03 | 61 | 1002.8 |
| 20260509190947 | 20 | 232 | 3.2 | 16.1 | 0.00 | 0.03 | 0.03 | 60 | 1003.0 |
| 20260509190447 | 20 | 211 | 4.8 | 17.7 | 0.00 | 0.03 | 0.03 | 63 | 1002.9 |
| 20260509190205 | 20 | 237 | 6.4 | 19.3 | 0.00 | 0.03 | 0.03 | 58 | 1002.9 |
| 20260509185440 | 20 | 178 | 4.8 | 19.3 | 0.00 | 0.03 | 0.03 | 59 | 1003.1 |
| 20260509184939 | 20 | 284 | 3.2 | 17.7 | 0.00 | 0.03 | 0.03 | 60 | 1003.3 |
| 20260509184655 | 20 | 126 | 1.6 | 8.0 | 0.00 | 0.03 | 0.03 | 66 | 1003.2 |
| 20260509183428 | 19 | 175 | 4.8 | 19.3 | 0.00 | 0.03 | 0.03 | 62 | 1003.2 |
| 20260509182923 | 19 | 261 | 3.2 | 9.7 | 0.00 | 0.03 | 0.03 | 66 | 1003.4 |
| 20260509182645 | 18 | 262 | 1.6 | 9.7 | 0.00 | 0.03 | 0.03 | 65 | 1003.4 |
| 20260509181916 | 18 | 221 | 1.6 | 6.4 | 0.00 | 0.03 | 0.03 | 72 | 1003.5 |
| 20260509181416 | 17 | 261 | 1.6 | 6.4 | 0.00 | 0.03 | 0.03 | 72 | 1003.5 |
| 20260509180915 | 17 | 196 | 3.2 | 9.7 | 0.00 | 0.03 | 0.03 | 75 | 1003.4 |
| 20260509180411 | 16 | 265 | 3.2 | 9.7 | 0.00 | 0.03 | 0.03 | 76 | 1003.4 |
| 20260509175908 | 16 | 279 | 3.2 | 8.0 | 0.00 | 0.03 | 0.03 | 77 | 1003.6 |
| 20260509175408 | 16 | 307 | 4.8 | 14.5 | 0.00 | 0.03 | 0.03 | 81 | 1003.5 |
| 20260509174904 | 16 | 309 | 6.4 | 16.1 | 0.00 | 0.03 | 0.03 | 75 | 1003.6 |
| 20260509174626 | 16 | 296 | 6.4 | 16.1 | 0.00 | 0.03 | 0.03 | 75 | 1003.9 |
| 20260509173904 | 17 | 308 | 3.2 | 16.1 | 0.00 | 0.03 | 0.03 | 69 | 1004.2 |
| 20260509173622 | 17 | 223 | 3.2 | 11.3 | 0.00 | 0.03 | 0.03 | 66 | 1004.1 |
| 20260509173118 | 17 | 276 | 4.8 | 12.9 | 0.00 | 0.03 | 0.03 | 66 | 1003.8 |
| 20260509172354 | 18 | 190 | 4.8 | 12.9 | 0.00 | 0.03 | 0.03 | 66 | 1003.8 |
| 20260509171844 | 18 | 132 | 3.2 | 11.3 | 0.00 | 0.03 | 0.03 | 69 | 1003.6 |
| 20260509171342 | 18 | 216 | 3.2 | 11.3 | 0.00 | 0.03 | 0.03 | 68 | 1003.7 |
| 20260509171100 | 17 | 252 | 3.2 | 9.7 | 0.00 | 0.03 | 0.03 | 71 | 1003.8 |
| 20260509170558 | 17 | 216 | 1.6 | 8.0 | 0.00 | 0.03 | 0.03 | 70 | 1003.9 |
| 20260509165832 | 17 | 272 | 3.2 | 17.7 | 0.00 | 0.03 | 0.03 | 70 | 1004.1 |
| 20260509165328 | 16 | 229 | 3.2 | 17.7 | 0.00 | 0.03 | 0.03 | 73 | 1004.3 |
| 20260509164822 | 16 | 217 | 3.2 | 11.3 | 0.00 | 0.03 | 0.03 | 75 | 1004.4 |
| 20260509164318 | 16 | 150 | 4.8 | 11.3 | 0.00 | 0.03 | 0.03 | 75 | 1004.3 |
| 20260509163817 | 16 | 210 | 3.2 | 9.7 | 0.00 | 0.03 | 0.03 | 73 | 1004.3 |
| 20260509163316 | 16 | 198 | 3.2 | 9.7 | 0.00 | 0.03 | 0.03 | 74 | 1004.5 |
| 20260509163036 | 16 | 244 | 3.2 | 9.7 | 0.00 | 0.03 | 0.03 | 76 | 1004.5 |
| 20260509162313 | 16 | 236 | 4.8 | 17.7 | 0.00 | 0.03 | 0.03 | 75 | 1004.5 |
| 20260509161800 | 16 | 193 | 3.2 | 17.7 | 0.00 | 0.03 | 0.03 | 76 | 1004.5 |
| 20260509161524 | 16 | 207 | 3.2 | 14.5 | 0.00 | 0.03 | 0.03 | 75 | 1004.6 |
| 20260509160751 | 16 | 163 | 4.8 | 14.5 | 0.00 | 0.03 | 0.03 | 75 | 1004.6 |
| 20260509160251 | 16 | 223 | 3.2 | 16.1 | 0.00 | 0.03 | 0.03 | 78 | 1004.7 |
| 20260509155748 | 16 | 230 | 1.6 | 16.1 | 0.00 | 0.03 | 0.03 | 75 | 1004.5 |
| 20260509155242 | 16 | 227 | 3.2 | 16.1 | 0.00 | 0.03 | 0.03 | 78 | 1004.6 |
| 20260509154735 | 16 | 259 | 3.2 | 16.1 | 0.00 | 0.03 | 0.03 | 81 | 1004.7 |
| 20260509154453 | 16 | 290 | 1.6 | 11.3 | 0.00 | 0.03 | 0.03 | 81 | 1004.8 |
| 20260509153728 | 16 | 232 | 1.6 | 11.3 | 0.00 | 0.03 | 0.03 | 81 | 1004.8 |
| 20260509153227 | 15 | 143 | 1.6 | 11.3 | 0.00 | 0.03 | 0.03 | 81 | 1004.8 |
| 20260509152723 | 15 | 184 | 3.2 | 8.0 | 0.00 | 0.03 | 0.03 | 81 | 1004.7 |
| 20260509152442 | 14 | 242 | 3.2 | 9.7 | 0.00 | 0.03 | 0.03 | 80 | 1004.8 |
| 20260509151717 | 14 | 204 | 3.2 | 9.7 | 0.00 | 0.03 | 0.03 | 81 | 1004.8 |
| 20260509151439 | 14 | 226 | 1.6 | 8.0 | 0.00 | 0.03 | 0.03 | 82 | 1004.8 |
| 20260509150711 | 14 | 219 | 0.0 | 9.7 | 0.00 | 0.03 | 0.03 | 81 | 1004.8 |
| 20260509150157 | 14 | 219 | 1.6 | 9.7 | 0.00 | 0.03 | 0.03 | 81 | 1004.8 |
| 20260509145644 | 15 | 143 | 1.6 | 8.0 | 0.00 | 0.03 | 0.03 | 80 | 1004.7 |
| 20260509145142 | 15 | 263 | 3.2 | 11.3 | 0.00 | 0.03 | 0.03 | 80 | 1004.8 |
| 20260509144643 | 15 | 219 | 3.2 | 11.3 | 0.00 | 0.03 | 0.03 | 80 | 1004.7 |
| 20260509144358 | 15 | 246 | 1.6 | 9.7 | 0.00 | 0.03 | 0.03 | 84 | 1004.7 |
| 20260509143900 | 14 | 242 | 1.6 | 9.7 | 0.00 | 0.03 | 0.03 | 84 | 1004.7 |
| 20260509142628 | 13 | 235 | 3.2 | 17.7 | 0.00 | 0.03 | 0.03 | 84 | 1004.8 |
| 20260509142126 | 13 | 216 | 3.2 | 17.7 | 0.00 | 0.03 | 0.03 | 84 | 1004.8 |
| 20260509141614 | 13 | 229 | 1.6 | 8.0 | 0.00 | 0.03 | 0.03 | 85 | 1004.8 |
| 20260509141113 | 13 | 302 | 1.6 | 16.1 | 0.00 | 0.03 | 0.03 | 86 | 1004.7 |
| 20260509140609 | 13 | 219 | 1.6 | 16.1 | 0.00 | 0.03 | 0.03 | 86 | 1004.7 |
| 20260509140056 | 13 | 215 | 3.2 | 9.7 | 0.00 | 0.03 | 0.03 | 87 | 1004.7 |
| 20260509135545 | 12 | 253 | 1.6 | 9.7 | 0.00 | 0.03 | 0.03 | 87 | 1004.8 |
| 20260509135040 | 12 | 217 | 1.6 | 9.7 | 0.00 | 0.03 | 0.03 | 87 | 1004.8 |
| 20260509134539 | 12 | 212 | 3.2 | 9.7 | 0.00 | 0.03 | 0.03 | 86 | 1004.8 |
| 20260509134034 | 12 | 217 | 1.6 | 8.0 | 0.00 | 0.03 | 0.03 | 87 | 1004.9 |
| 20260509133530 | 12 | 239 | 1.6 | 11.3 | 0.00 | 0.03 | 0.03 | 87 | 1004.9 |
| 20260509133250 | 12 | 218 | 3.2 | 11.3 | 0.00 | 0.03 | 0.03 | 87 | 1004.8 |
| 20260509132526 | 12 | 237 | 1.6 | 9.7 | 0.00 | 0.03 | 0.03 | 87 | 1004.9 |
| 20260509132020 | 12 | 247 | 1.6 | 8.0 | 0.00 | 0.03 | 0.03 | 87 | 1004.9 |
| 20260509131512 | 12 | 221 | 1.6 | 6.4 | 0.00 | 0.03 | 0.03 | 88 | 1004.9 |
| 20260509131229 | 12 | 211 | 1.6 | 8.0 | 0.00 | 0.03 | 0.03 | 88 | 1004.9 |
| 20260509130453 | 12 | 229 | 0.0 | 8.0 | 0.00 | 0.03 | 0.03 | 88 | 1004.9 |
| 20260509130217 | 12 | 134 | 1.6 | 8.0 | 0.00 | 0.03 | 0.03 | 88 | 1004.9 |
| 20260509125658 | 12 | 220 | 1.6 | 8.0 | 0.00 | 0.03 | 0.03 | 88 | 1005.0 |
| 20260509125149 | 12 | 229 | 1.6 | 4.8 | 0.00 | 0.03 | 0.03 | 88 | 1005.1 |
| 20260509124425 | 12 | 229 | 1.6 | 8.0 | 0.00 | 0.03 | 0.03 | 89 | 1005.1 |
| 20260509123915 | 12 | 171 | 1.6 | 8.0 | 0.00 | 0.03 | 0.03 | 89 | 1005.1 |
| 20260509123636 | 12 | 152 | 0.0 | 4.8 | 0.00 | 0.03 | 0.03 | 89 | 1005.2 |
| 20260509122402 | 11 | 187 | 0.0 | 4.8 | 0.00 | 0.03 | 0.03 | 90 | 1005.1 |
| 20260509122120 | 11 | 186 | 0.0 | 4.8 | 0.00 | 0.03 | 0.03 | 90 | 1005.2 |
| 20260509121354 | 11 | 79 | 1.6 | 6.4 | 0.00 | 0.03 | 0.03 | 90 | 1005.3 |
| 20260509120843 | 11 | 148 | 1.6 | 6.4 | 0.00 | 0.03 | 0.03 | 90 | 1005.4 |
| 20260509120345 | 11 | 212 | 0.0 | 6.4 | 0.00 | 0.03 | 0.03 | 90 | 1005.4 |
| 20260509115842 | 11 | 185 | 0.0 | 6.4 | 0.00 | 0.03 | 0.03 | 91 | 1005.3 |
| 20260509115338 | 11 | 179 | 1.6 | 6.4 | 0.00 | 0.03 | 0.03 | 91 | 1005.3 |
| 20260509114832 | 11 | 227 | 1.6 | 4.8 | 0.00 | 0.03 | 0.03 | 91 | 1005.2 |
| 20260509114321 | 11 | 192 | 0.0 | 3.2 | 0.00 | 0.03 | 0.03 | 91 | 1005.2 |
| 20260509113821 | 11 | 172 | 1.6 | 9.7 | 0.00 | 0.03 | 0.03 | 91 | 1005.2 |
| 20260509113320 | 11 | 180 | 1.6 | 9.7 | 0.00 | 0.03 | 0.03 | 92 | 1005.2 |
| 20260509112814 | 11 | 200 | 0.0 | 6.4 | 0.00 | 0.03 | 0.03 | 92 | 1005.2 |
| 20260509112536 | 11 | 220 | 0.0 | 6.4 | 0.00 | 0.03 | 0.03 | 92 | 1005.1 |
| 20260509111813 | 11 | 157 | 1.6 | 6.4 | 0.00 | 0.03 | 0.03 | 92 | 1005.0 |
| 20260509111234 | 10 | 191 | 1.6 | 6.4 | 0.00 | 0.03 | 0.03 | 92 | 1005.0 |
| 20260509110732 | 10 | 149 | 0.0 | 8.0 | 0.00 | 0.03 | 0.03 | 92 | 1005.1 |
| 20260509110232 | 10 | 225 | 0.0 | 8.0 | 0.00 | 0.03 | 0.03 | 92 | 1005.0 |
| 20260509105729 | 10 | 291 | 0.0 | 8.0 | 0.00 | 0.03 | 0.03 | 92 | 1005.0 |
| 20260509105225 | 10 | 163 | 0.0 | 3.2 | 0.00 | 0.03 | 0.03 | 92 | 1005.0 |
| 20260509104923 | 10 | 221 | 0.0 | 4.8 | 0.00 | 0.03 | 0.03 | 92 | 1005.0 |
| 20260509104135 | 10 | 231 | 0.0 | 4.8 | 0.00 | 0.03 | 0.03 | 92 | 1005.1 |
| 20260509103629 | 10 | 126 | 0.0 | 0.0 | 0.00 | 0.03 | 0.03 | 92 | 1005.0 |
| 20260509103129 | 10 | 130 | 0.0 | 3.2 | 0.00 | 0.03 | 0.03 | 92 | 1005.0 |
| 20260509102625 | 10 | 130 | 0.0 | 3.2 | 0.00 | 0.03 | 0.03 | 92 | 1005.0 |
| 20260509102111 | 10 | 126 | 0.0 | 3.2 | 0.00 | 0.03 | 0.03 | 92 | 1005.0 |
| 20260509101604 | 10 | 126 | 0.0 | 6.4 | 0.00 | 0.03 | 0.03 | 92 | 1005.0 |
| 20260509101104 | 10 | 127 | 0.0 | 6.4 | 0.00 | 0.03 | 0.03 | 92 | 1005.0 |
| 20260509100602 | 10 | 155 | 1.6 | 6.4 | 0.00 | 0.03 | 0.03 | 92 | 1005.1 |
| 20260509100056 | 10 | 209 | 0.0 | 4.8 | 0.00 | 0.03 | 0.03 | 92 | 1005.1 |
| 20260509095543 | 10 | 162 | 0.0 | 4.8 | 0.00 | 0.03 | 0.03 | 92 | 1005.1 |
| 20260509095043 | 10 | 150 | 0.0 | 4.8 | 0.00 | 0.03 | 0.03 | 92 | 1005.2 |
| 20260509094756 | 10 | 170 | 0.0 | 0.0 | 0.00 | 0.03 | 0.03 | 92 | 1005.2 |
| 20260509094013 | 10 | 170 | 0.0 | 3.2 | 0.00 | 0.03 | 0.03 | 92 | 1005.1 |
| 20260509093512 | 10 | 170 | 0.0 | 4.8 | 0.00 | 0.03 | 0.03 | 92 | 1005.1 |
| 20260509093002 | 10 | 168 | 0.0 | 4.8 | 0.00 | 0.03 | 0.03 | 91 | 1005.2 |
| 20260509092504 | 10 | 225 | 0.0 | 4.8 | 0.00 | 0.03 | 0.03 | 91 | 1005.3 |
| 20260509091955 | 10 | 232 | 0.0 | 4.8 | 0.00 | 0.03 | 0.03 | 91 | 1005.3 |
| 20260509091650 | 10 | 223 | 0.0 | 9.7 | 0.00 | 0.03 | 0.03 | 91 | 1005.3 |
| 20260509090921 | 10 | 213 | 1.6 | 9.7 | 0.00 | 0.03 | 0.03 | 91 | 1005.3 |
| 20260509090419 | 10 | 215 | 1.6 | 8.0 | 0.00 | 0.03 | 0.03 | 91 | 1005.3 |
| 20260509085900 | 10 | 244 | 1.6 | 8.0 | 0.00 | 0.03 | 0.03 | 91 | 1005.3 |
| 20260509085359 | 10 | 200 | 1.6 | 6.4 | 0.00 | 0.03 | 0.03 | 91 | 1005.4 |
| 20260509084856 | 10 | 226 | 0.0 | 3.2 | 0.00 | 0.03 | 0.03 | 91 | 1005.4 |
| 20260509084354 | 10 | 207 | 0.0 | 6.4 | 0.00 | 0.03 | 0.03 | 91 | 1005.4 |
| 20260509083853 | 11 | 161 | 0.0 | 6.4 | 0.00 | 0.03 | 0.03 | 91 | 1005.4 |
| 20260509083350 | 11 | 208 | 0.0 | 8.0 | 0.00 | 0.03 | 0.03 | 91 | 1005.4 |
| 20260509082844 | 11 | 212 | 0.0 | 8.0 | 0.00 | 0.03 | 0.03 | 92 | 1005.4 |
| 20260509082334 | 11 | 202 | 0.0 | 1.6 | 0.00 | 0.03 | 0.03 | 91 | 1005.3 |
| 20260509082052 | 11 | 184 | 0.0 | 0.0 | 0.00 | 0.03 | 0.03 | 92 | 1005.3 |
| 20260509081329 | 11 | 184 | 0.0 | 3.2 | 0.00 | 0.03 | 0.03 | 92 | 1005.4 |
| 20260509080829 | 11 | 184 | 0.0 | 3.2 | 0.00 | 0.03 | 0.03 | 92 | 1005.3 |
| 20260509080328 | 11 | 214 | 0.0 | 0.0 | 0.00 | 0.03 | 0.03 | 92 | 1005.2 |
| 20260509075826 | 11 | 214 | 0.0 | 0.0 | 0.00 | 0.03 | 0.03 | 92 | 1005.3 |
| 20260509075548 | 11 | 202 | 0.0 | 3.2 | 0.00 | 0.03 | 0.03 | 92 | 1005.4 |
| 20260509075044 | 10 | 202 | 0.0 | 3.2 | 0.00 | 0.03 | 0.03 | 92 | 1005.4 |
| 20260509074316 | 10 | 212 | 0.0 | 3.2 | 0.00 | 0.03 | 0.03 | 92 | 1005.5 |
| 20260509073753 | 10 | 208 | 0.0 | 4.8 | 0.00 | 0.03 | 0.03 | 92 | 1005.5 |
| 20260509073231 | 10 | 208 | 1.6 | 4.8 | 0.00 | 0.03 | 0.03 | 92 | 1005.5 |
| 20260509072952 | 10 | 213 | 0.0 | 4.8 | 0.00 | 0.03 | 0.03 | 92 | 1005.5 |
| 20260509072231 | 10 | 223 | 0.0 | 9.7 | 0.00 | 0.03 | 0.03 | 92 | 1005.5 |